�N����,����,�~����,�C��,���x,�C��,����,���ϕ���,�ő�u�ԕ���,�ő厞����,���˗�,�I�_���x,�n�����x,�ő啗���N��,DTYPE
"17/02/27","00:10",0.0,5.2,82.0,1017.5,324.1,2.3,4.5,331.6,0.00,2.4,7.4,"00:00:48",1
"17/02/27","00:20",0.0,5.1,81.8,1017.8,319.5,1.5,2.1,317.2,0.00,2.3,7.3,"00:13:20",1
"17/02/27","00:30",0.0,5.0,81.6,1018.2,333.0,2.0,4.0,335.8,0.00,2.2,7.4,"00:29:04",1
"17/02/27","00:40",0.0,4.9,80.9,1018.2,327.0,2.3,3.9,339.7,0.00,1.9,7.1,"00:32:08",1
"17/02/27","00:50",0.0,4.6,81.4,1018.0,312.1,2.5,3.9,323.8,0.00,1.7,7.1,"00:49:44",1
"17/02/27","01:00",0.0,4.3,81.9,1018.0,314.9,2.2,4.3,339.9,0.00,1.5,7.2,"00:50:48",1
"17/02/27","01:10",0.0,4.0,82.2,1018.2,329.1,1.7,4.1,323.0,0.00,1.3,7.2,"01:01:52",1
"17/02/27","01:20",0.0,3.7,83.7,1018.0,324.9,1.6,2.9,321.9,0.00,1.2,7.1,"01:13:04",1
"17/02/27","01:30",0.0,3.9,84.1,1018.2,317.3,2.8,5.0,302.5,0.00,1.5,7.0,"01:26:16",1
"17/02/27","01:40",0.0,3.9,83.8,1018.2,328.3,3.1,4.7,338.0,0.00,1.5,7.0,"01:32:48",1
"17/02/27","01:50",0.0,3.9,83.4,1018.2,322.2,3.5,6.4,332.3,0.00,1.4,6.8,"01:47:28",1
"17/02/27","02:00",0.0,4.2,82.1,1018.5,324.4,5.2,8.1,319.8,0.00,1.5,7.1,"01:56:48",1
"17/02/27","02:10",0.0,4.3,81.1,1018.2,324.8,4.9,8.1,316.7,0.00,1.4,6.8,"02:09:28",1
"17/02/27","02:20",0.0,4.3,81.2,1018.5,321.6,3.7,6.7,314.2,0.00,1.4,6.7,"02:19:44",1
"17/02/27","02:30",0.0,4.2,81.7,1018.5,318.5,3.6,7.0,323.3,0.00,1.4,6.6,"02:21:12",1
"17/02/27","02:40",0.0,4.3,81.9,1018.5,314.2,3.7,5.6,296.3,0.00,1.5,6.5,"02:36:16",1
"17/02/27","02:50",0.0,3.9,82.2,1018.5,315.5,2.5,4.1,313.2,0.00,1.2,6.7,"02:47:28",1
"17/02/27","03:00",0.0,3.8,83.1,1018.5,309.0,2.7,4.7,340.1,0.00,1.2,6.3,"02:58:56",1
"17/02/27","03:10",0.0,3.9,82.7,1018.5,316.3,3.2,5.1,321.9,0.00,1.3,6.6,"03:02:48",1
"17/02/27","03:20",0.0,3.8,82.5,1018.2,310.7,2.3,4.0,335.2,0.00,1.1,6.4,"03:16:56",1
"17/02/27","03:30",0.0,3.8,82.6,1018.2,311.4,3.7,8.2,325.8,0.00,1.2,6.4,"03:20:02",1
"17/02/27","03:40",0.0,4.0,80.8,1018.5,312.3,4.5,6.6,321.6,0.00,1.0,6.4,"03:34:56",1
"17/02/27","03:50",0.0,3.9,80.5,1018.0,315.1,3.9,5.9,302.8,0.00,0.9,6.2,"03:43:12",1
"17/02/27","04:00",0.0,3.9,80.3,1018.5,316.9,4.2,6.5,317.6,0.00,0.9,6.4,"03:50:56",1
"17/02/27","04:10",0.0,3.7,80.2,1018.2,312.9,2.5,5.1,322.4,0.00,0.6,6.3,"04:02:32",1
"17/02/27","04:20",0.0,2.8,81.9,1018.5,315.3,1.7,3.2,322.7,0.00,0.1,6.1,"04:16:16",1
"17/02/27","04:30",0.0,2.9,84.8,1018.0,316.4,3.5,7.1,316.0,0.00,0.6,6.2,"04:27:04",1
"17/02/27","04:40",0.0,3.5,82.0,1017.8,298.3,2.7,6.0,326.1,0.00,0.8,6.1,"04:36:16",1
"17/02/27","04:50",0.0,2.8,82.4,1017.5,301.7,1.7,3.1,324.7,0.00,0.1,5.9,"04:44:56",1
"17/02/27","05:00",0.0,2.0,83.2,1017.8,312.4,1.6,2.8,352.0,0.00,-0.5,5.9,"04:53:16",1
"17/02/27","05:10",0.0,1.3,85.7,1017.8,312.1,2.2,3.2,335.5,0.00,-0.8,6.0,"05:02:20",1
"17/02/27","05:20",0.0,1.0,87.6,1017.5,293.1,1.2,2.9,322.7,0.00,-0.8,5.8,"05:10:16",1
"17/02/27","05:30",0.0,0.8,89.7,1017.3,309.9,1.5,4.0,345.4,0.00,-0.7,5.8,"05:26:28",1
"17/02/27","05:40",0.0,0.8,90.7,1017.5,297.3,2.0,3.1,329.6,0.00,-0.5,5.7,"05:36:46",1
"17/02/27","05:50",0.0,0.8,91.0,1017.3,311.2,2.2,2.9,307.7,0.00,-0.5,5.7,"05:42:54",1
"17/02/27","06:00",0.0,0.7,91.7,1017.1,316.4,2.1,3.7,348.8,0.00,-0.5,5.6,"05:58:08",1
"17/02/27","06:10",0.0,0.7,92.0,1017.5,320.8,2.5,3.3,320.3,0.00,-0.4,5.6,"06:08:58",1
"17/02/27","06:20",0.0,0.8,92.4,1017.5,309.4,2.3,4.2,319.7,0.00,-0.3,5.7,"06:19:46",1
"17/02/27","06:30",0.0,1.4,92.1,1017.8,308.5,3.1,5.2,331.3,0.00,0.3,5.7,"06:22:40",1
"17/02/27","06:40",0.0,1.5,90.4,1017.5,302.2,2.1,3.1,318.7,0.00,0.1,5.5,"06:34:48",1
"17/02/27","06:50",0.0,1.3,89.9,1017.5,292.7,1.5,2.4,305.4,0.00,-0.1,5.4,"06:43:12",1
"17/02/27","07:00",0.0,1.3,90.0,1017.8,290.9,1.6,2.6,311.9,0.00,-0.1,5.2,"06:57:36",1
"17/02/27","07:10",0.0,1.7,90.4,1018.0,312.0,2.1,3.1,314.2,0.00,0.3,5.4,"07:04:24",1
"17/02/27","07:20",0.0,3.3,85.9,1018.5,308.4,2.6,3.9,314.0,0.02,1.2,5.4,"07:15:20",1
"17/02/27","07:30",0.0,4.6,78.9,1018.7,300.2,2.6,3.4,314.5,0.03,1.3,5.4,"07:22:16",1
"17/02/27","07:40",0.0,5.0,76.1,1019.0,300.9,2.7,4.4,314.5,0.04,1.2,5.5,"07:38:32",1
"17/02/27","07:50",0.0,5.1,73.1,1019.7,319.3,3.5,5.6,335.4,0.05,0.7,5.6,"07:49:12",1
"17/02/27","08:00",0.0,5.1,72.0,1019.9,330.9,3.5,5.9,324.3,0.06,0.5,5.7,"07:52:08",1
"17/02/27","08:10",0.0,5.5,70.2,1020.1,320.9,3.5,5.4,343.9,0.09,0.5,5.8,"08:07:44",1
"17/02/27","08:20",0.0,5.7,70.3,1020.6,326.2,3.5,5.9,306.9,0.12,0.8,5.7,"08:14:32",1
"17/02/27","08:30",0.0,5.8,68.2,1020.8,330.4,3.5,6.2,330.6,0.15,0.4,5.7,"08:29:06",1
"17/02/27","08:40",0.0,5.8,68.0,1020.8,329.3,2.8,6.0,329.2,0.18,0.4,6.2,"08:37:24",1
"17/02/27","08:50",0.0,5.8,65.8,1020.6,334.8,2.8,5.4,342.3,0.11,-0.1,6.2,"08:46:44",1
"17/02/27","09:00",0.0,6.3,64.3,1020.4,326.9,2.5,4.7,344.9,0.21,0.1,6.2,"08:50:40",1
"17/02/27","09:10",0.0,6.2,62.5,1020.4,339.3,2.6,8.9,341.2,0.20,-0.4,6.4,"09:08:02",1
"17/02/27","09:20",0.0,6.1,62.1,1020.6,348.6,2.6,4.8,324.7,0.15,-0.6,6.5,"09:18:34",1
"17/02/27","09:30",0.0,5.9,61.9,1020.4,340.4,3.1,5.8,323.3,0.16,-0.8,6.6,"09:22:46",1
"17/02/27","09:40",0.0,6.0,59.2,1020.4,346.7,3.0,6.4,343.7,0.18,-1.3,6.4,"09:36:28",1
"17/02/27","09:50",0.0,6.5,57.8,1020.6,345.9,3.7,6.2,342.6,0.28,-1.2,6.8,"09:46:40",1
"17/02/27","10:00",0.0,6.8,56.3,1020.4,346.7,3.4,8.3,342.2,0.32,-1.2,6.9,"09:58:40",1
"17/02/27","10:10",0.0,7.4,55.1,1020.4,342.0,4.2,8.7,349.5,0.44,-1.0,7.1,"10:06:32",1
"17/02/27","10:20",0.0,7.3,54.5,1020.6,342.7,4.1,9.5,343.5,0.37,-1.2,7.3,"10:13:42",1
"17/02/27","10:30",0.0,7.8,53.7,1020.4,357.8,3.2,5.8,353.1,0.48,-1.0,7.6,"10:23:06",1
"17/02/27","10:40",0.0,7.8,53.6,1020.6,341.5,3.2,8.1,337.5,0.51,-1.0,7.6,"10:32:12",1
"17/02/27","10:50",0.0,7.8,54.1,1020.4,352.1,4.2,8.8,348.1,0.55,-0.9,7.7,"10:47:20",1
"17/02/27","11:00",0.0,8.1,53.9,1020.6,345.7,3.9,9.0,349.5,0.58,-0.6,8.0,"10:52:48",1
"17/02/27","11:10",0.0,8.4,53.6,1020.6,326.7,5.1,9.3,309.9,0.60,-0.4,8.0,"11:00:40",1
"17/02/27","11:20",0.0,8.3,54.3,1020.1,323.0,4.7,7.8,327.8,0.57,-0.3,8.3,"11:16:00",1
"17/02/27","11:30",0.0,7.6,55.4,1019.9,326.7,6.1,12.7,310.9,0.45,-0.7,8.3,"11:29:06",1
"17/02/27","11:40",0.0,8.1,54.2,1020.1,335.9,4.9,8.9,324.4,0.57,-0.6,8.3,"11:38:18",1
"17/02/27","11:50",0.0,8.5,55.2,1019.9,336.2,5.0,8.0,331.3,0.59,0.1,8.7,"11:48:26",1
"17/02/27","12:00",0.0,7.4,57.8,1020.4,335.8,5.7,10.4,332.1,0.48,-0.3,9.0,"11:50:42",1
"17/02/27","12:10",0.0,7.7,56.4,1020.4,338.6,4.6,9.5,340.0,0.53,-0.4,9.1,"12:07:28",1
"17/02/27","12:20",0.0,7.9,55.2,1019.7,339.5,4.9,9.3,338.9,0.55,-0.5,9.3,"12:15:56",1
"17/02/27","12:30",0.0,7.8,55.1,1019.2,326.1,5.1,10.0,346.2,0.56,-0.6,9.2,"12:22:18",1
"17/02/27","12:40",0.0,8.0,55.3,1019.0,333.7,4.4,7.4,341.6,0.55,-0.4,9.3,"12:30:16",1
"17/02/27","12:50",0.0,8.3,53.6,1019.0,319.1,5.4,9.4,327.0,0.56,-0.5,9.4,"12:45:08",1
"17/02/27","13:00",0.0,8.7,53.5,1019.2,333.3,4.5,8.8,342.4,0.56,-0.2,9.7,"12:50:34",1
"17/02/27","13:10",0.0,8.4,54.0,1019.0,338.2,5.0,9.5,334.9,0.55,-0.3,9.7,"13:02:18",1
"17/02/27","13:20",0.0,8.1,53.3,1019.0,320.0,6.4,10.9,323.1,0.54,-0.8,9.9,"13:16:12",1
"17/02/27","13:30",0.0,8.5,52.7,1018.5,326.5,4.2,9.1,315.1,0.53,-0.6,9.9,"13:23:58",1
"17/02/27","13:40",0.0,8.3,52.2,1018.7,338.9,4.5,8.2,344.3,0.51,-0.9,10.1,"13:30:08",1
"17/02/27","13:50",0.0,8.4,50.8,1018.5,335.5,4.2,7.2,339.4,0.49,-1.2,10.2,"13:48:38",1
"17/02/27","14:00",0.0,8.6,51.3,1018.2,329.3,4.9,8.3,324.8,0.50,-0.8,10.2,"13:54:22",1
"17/02/27","14:10",0.0,8.8,50.8,1018.2,329.5,5.0,7.2,325.1,0.49,-0.8,10.3,"14:04:42",1
"17/02/27","14:20",0.0,9.0,52.3,1017.8,335.7,4.5,7.9,340.1,0.47,-0.2,10.4,"14:17:42",1
"17/02/27","14:30",0.0,8.8,52.6,1017.8,330.5,5.0,9.8,327.4,0.45,-0.3,10.3,"14:26:50",1
"17/02/27","14:40",0.0,8.5,52.3,1017.8,332.2,5.6,8.1,352.9,0.43,-0.7,10.2,"14:31:16",1
"17/02/27","14:50",0.0,8.3,53.1,1017.5,337.3,5.4,10.3,344.5,0.40,-0.6,10.3,"14:47:26",1
"17/02/27","15:00",0.0,8.2,52.3,1017.8,335.6,5.9,10.4,335.2,0.39,-0.9,10.3,"14:53:26",1
"17/02/27","15:10",0.0,7.9,51.9,1017.8,338.5,5.1,8.6,325.0,0.33,-1.3,10.4,"15:07:52",1
"17/02/27","15:20",0.0,7.6,53.9,1017.8,341.4,5.5,8.3,334.0,0.29,-1.1,10.1,"15:19:40",1
"17/02/27","15:30",0.0,7.2,54.1,1017.8,339.6,5.4,9.1,343.9,0.23,-1.4,10.2,"15:28:30",1
"17/02/27","15:40",0.0,7.6,54.3,1017.5,335.9,5.4,9.3,340.5,0.29,-1.0,10.0,"15:32:46",1
"17/02/27","15:50",0.0,7.1,55.5,1017.5,341.4,6.1,11.9,344.7,0.24,-1.2,9.9,"15:49:10",1
"17/02/27","16:00",0.0,7.3,55.5,1017.5,333.3,5.4,8.9,344.1,0.26,-1.0,10.0,"15:57:12",1
"17/02/27","16:10",0.0,6.9,55.2,1018.0,331.4,6.1,11.9,339.2,0.17,-1.4,9.7,"16:00:08",1
"17/02/27","16:20",0.0,6.7,55.6,1017.8,335.5,6.6,10.6,348.5,0.19,-1.5,9.7,"16:16:46",1
"17/02/27","16:30",0.0,7.0,55.3,1017.8,336.8,5.4,9.3,345.3,0.15,-1.3,9.8,"16:23:14",1
"17/02/27","16:40",0.0,6.7,55.0,1018.2,334.8,6.2,11.1,354.0,0.13,-1.7,9.4,"16:32:04",1
"17/02/27","16:50",0.0,6.5,55.7,1018.7,329.6,5.7,9.5,352.9,0.11,-1.7,9.3,"16:46:08",1
"17/02/27","17:00",0.0,6.1,56.3,1018.5,335.0,5.9,9.3,341.5,0.06,-1.9,9.3,"16:51:48",1
"17/02/27","17:10",0.0,5.9,57.9,1018.7,333.1,5.9,9.5,330.5,0.04,-1.7,9.2,"17:04:20",1
"17/02/27","17:20",0.0,5.8,58.9,1018.7,331.7,6.1,10.3,341.4,0.03,-1.6,8.8,"17:11:26",1
"17/02/27","17:30",0.0,5.4,59.8,1019.0,325.6,6.4,10.9,314.8,0.00,-1.7,8.8,"17:28:34",1
"17/02/27","17:40",0.0,5.2,61.7,1018.7,328.9,5.5,10.4,328.7,0.00,-1.5,8.7,"17:38:22",1
"17/02/27","17:50",0.0,5.0,62.8,1018.7,329.4,4.9,9.8,324.8,0.00,-1.5,8.6,"17:44:32",1
"17/02/27","18:00",0.0,4.8,63.3,1019.2,326.1,4.7,7.7,337.2,0.00,-1.5,8.6,"17:54:38",1
"17/02/27","18:10",0.0,4.7,63.7,1019.0,327.2,5.0,9.1,322.9,0.00,-1.5,8.3,"18:01:28",1
"17/02/27","18:20",0.0,4.5,64.9,1019.0,326.8,3.9,7.0,338.2,0.00,-1.5,8.4,"18:18:00",1
"17/02/27","18:30",0.0,4.3,65.7,1019.0,330.3,4.1,6.2,315.7,0.00,-1.5,8.1,"18:21:36",1
"17/02/27","18:40",0.0,4.2,66.2,1019.0,321.3,4.0,7.8,329.9,0.00,-1.5,8.2,"18:31:20",1
"17/02/27","18:50",0.0,4.1,66.7,1019.7,323.6,3.9,7.3,334.2,0.00,-1.5,7.9,"18:46:48",1
"17/02/27","19:00",0.0,4.1,66.7,1019.2,319.7,3.7,7.2,325.0,0.00,-1.5,7.8,"18:59:28",1
"17/02/27","19:10",0.0,4.1,66.8,1019.2,323.4,4.4,8.7,328.4,0.00,-1.5,7.9,"19:04:48",1
"17/02/27","19:20",0.0,4.0,67.3,1019.2,325.4,4.2,6.6,319.5,0.00,-1.5,7.7,"19:13:04",1
"17/02/27","19:30",0.0,3.9,68.0,1019.0,318.9,3.7,5.2,319.5,0.00,-1.4,7.4,"19:24:08",1
"17/02/27","19:40",0.0,3.8,68.2,1019.2,306.8,3.6,6.0,314.3,0.00,-1.5,7.2,"19:32:48",1
"17/02/27","19:50",0.0,3.7,68.9,1019.2,317.0,3.2,4.7,315.7,0.00,-1.4,7.3,"19:44:32",1
"17/02/27","20:00",0.0,3.4,70.0,1019.4,310.2,2.5,3.6,331.1,0.00,-1.5,7.2,"19:59:12",1
"17/02/27","20:10",0.0,3.2,71.0,1019.0,310.3,2.3,3.6,306.9,0.00,-1.5,6.9,"20:06:56",1
"17/02/27","20:20",0.0,2.9,72.1,1019.2,310.0,2.1,3.5,310.1,0.00,-1.6,7.1,"20:11:20",1
"17/02/27","20:30",0.0,2.6,73.5,1019.0,322.7,2.6,4.0,326.8,0.00,-1.6,7.1,"20:24:00",1
"17/02/27","20:40",0.0,2.5,74.4,1018.7,318.3,2.3,3.2,311.0,0.00,-1.5,7.0,"20:36:08",1
"17/02/27","20:50",0.0,2.3,75.3,1019.0,311.1,2.2,3.3,318.0,0.00,-1.6,6.8,"20:43:32",1
"17/02/27","21:00",0.0,1.9,76.2,1019.0,305.1,1.5,3.1,324.7,0.00,-1.8,6.9,"20:56:08",1
"17/02/27","21:10",0.0,1.5,78.0,1019.2,313.3,2.0,3.1,316.0,0.00,-1.9,6.6,"21:04:18",1
"17/02/27","21:20",0.0,1.1,80.4,1019.0,322.3,2.3,3.5,344.1,0.00,-1.9,6.5,"21:15:20",1
"17/02/27","21:30",0.0,1.0,82.0,1018.7,324.9,2.5,3.5,324.5,0.00,-1.7,6.5,"21:25:04",1
"17/02/27","21:40",0.0,0.8,83.0,1019.0,306.7,2.0,3.1,318.1,0.00,-1.7,6.4,"21:33:20",1
"17/02/27","21:50",0.0,0.6,83.8,1018.5,328.5,1.2,2.8,321.8,0.00,-1.8,6.3,"21:49:28",1
"17/02/27","22:00",0.0,0.5,85.0,1018.7,330.5,2.3,3.5,331.2,0.00,-1.7,6.4,"21:52:00",1
"17/02/27","22:10",0.0,0.4,85.7,1018.5,326.3,2.3,3.3,337.8,0.00,-1.7,6.2,"22:07:52",1
"17/02/27","22:20",0.0,0.3,86.3,1018.5,321.8,2.5,2.9,325.4,0.00,-1.7,6.2,"22:10:08",1
"17/02/27","22:30",0.0,0.2,87.3,1018.5,300.1,2.2,2.7,321.8,0.00,-1.6,6.1,"22:21:04",1
"17/02/27","22:40",0.0,0.3,87.3,1018.0,300.4,2.0,2.7,306.8,0.00,-1.5,5.9,"22:34:58",1
"17/02/27","22:50",0.0,0.1,87.4,1018.2,307.7,1.7,2.1,316.4,0.00,-1.7,5.9,"22:42:56",1
"17/02/27","23:00",0.0,0.0,87.6,1018.2,308.2,1.5,2.2,319.9,0.00,-1.8,5.9,"22:55:20",1
"17/02/27","23:10",0.0,0.1,88.9,1018.5,321.7,2.1,3.9,334.8,0.00,-1.5,5.8,"23:07:44",1
"17/02/27","23:20",0.0,0.6,88.2,1018.2,324.8,2.5,3.1,342.9,0.00,-1.1,6.0,"23:15:28",1
"17/02/27","23:30",0.0,0.6,87.6,1018.2,324.0,3.1,4.0,334.7,0.00,-1.2,5.5,"23:29:46",1
"17/02/27","23:40",0.0,0.7,87.2,1018.0,322.9,3.4,4.5,322.8,0.00,-1.1,5.8,"23:37:20",1
"17/02/27","23:50",0.0,0.7,87.0,1018.2,323.6,3.5,4.9,318.7,0.00,-1.2,5.7,"23:42:02",1
"17/02/27","24:00",0.0,0.6,87.1,1018.2,321.1,3.5,4.4,333.1,0.00,-1.3,5.6,"23:53:36",1
